Simultaneous Nadir Overpasses (SNOs) Predictions

Prediction of SNOs between GOES-15 and TERRA Satellite Orbit:

Table of predicted SNOs for the next 14.0 days since TLE Epoch: 8/8/2015
Index Date Time (GOES-15) GOES-15 Lat,Lon TERRA Lat,Lon Distance(km) Time Diff (sec)
1 08/09/2015 07:10:57 -0.08,-134.95 0.86,-130.55 499.97 80
2 08/09/2015 19:34:52 0.11,-134.94 0.26,-135.70 86.16 80
3 08/11/2015 19:19:59 0.10,-134.89 -0.33,-132.73 245.16 80
4 08/12/2015 07:44:03 -0.13,-134.87 -0.78,-137.92 346.67 80
5 08/14/2015 07:31:50 -0.13,-134.82 -0.18,-134.95 15.85 80
6 08/16/2015 07:16:58 -0.12,-134.77 0.48,-132.00 315.16 80
7 08/16/2015 19:40:53 0.15,-134.77 0.63,-137.15 270.79 80
8 08/18/2015 19:26:00 0.14,-134.71 0.03,-134.18 59.38 80
9 08/20/2015 19:13:47
